Theta_e
328 332 337 338 339 340 341 342 342 342 342 344 342 342 344 346 345 344 344 344 344 345 345 347 343 343 345 346 349 348 348 348 347 347 346 346 346 346 346 347 346 344 344 344 344 342 342 340 338 335 334 337
323 327 330 333 336 335 337 338 339 340 341 342 342 342 341 339 338 339 340 342 343 343 342 341 341 343 345 347 348 348 348 347 347 346 346 345 345 345 346 346 346 345 344 343 344 342 341 339 337 334 330 335
317 322 324 327 330 332 334 336 336 337 338 338 338 338 336 334 332 331 332 335 336 339 337 335 335 337 342 347 347 347 347 347 346 345 344 344 344 344 344 345 346 345 344 342 340 341 339 336 334 331 331 334
314 317 320 323 325 327 329 331 332 333 334 332 329 329 329 328 328 328 330 327 329 330 334 334 332 334 342 345 345 346 346 345 345 344 343 343 344 344 343 344 344 342 342 342 339 338 336 333 329 333 334 332
313 314 318 318 319 321 323 326 328 329 327 324 324 325 325 324 328 331 332 333 332 326 329 327 327 330 337 341 341 342 343 344 343 343 343 343 343 343 342 339 338 336 339 338 336 337 334 329 333 334 333 331
312 312 314 314 315 317 319 320 321 325 328 325 329 326 328 331 330 331 333 333 329 332 331 329 325 326 331 337 339 338 340 341 341 341 342 342 342 341 340 335 338 335 329 329 333 330 327 331 333 332 331 331
307 307 309 312 312 315 317 317 318 321 324 328 330 331 332 330 332 332 332 332 331 331 327 330 326 326 328 332 335 335 336 338 339 340 341 342 341 340 336 336 336 335 331 330 324 324 328 333 330 331 330 331
303 304 307 307 308 311 313 315 316 317 319 322 326 329 331 332 333 332 332 328 324 322 329 331 324 324 326 327 330 329 331 332 335 338 338 337 337 335 332 335 335 335 333 333 332 332 333 332 331 328 330 331
300 302 305 303 304 307 308 311 313 314 317 319 321 323 326 329 330 331 331 330 331 331 330 330 330 329 327 328 330 326 330 329 329 330 329 330 330 332 332 333 334 334 334 333 333 333 333 330 329 327 329 331
300 301 301 300 301 304 304 307 308 311 314 316 318 320 321 323 326 328 329 329 329 329 330 329 327 328 328 328 328 328 329 327 326 326 327 327 328 331 332 332 333 333 333 333 333 332 331 328 327 328 330 331
298 299 299 299 300 301 302 304 305 307 310 312 316 318 319 320 321 323 325 326 327 327 328 327 328 327 327 328 328 328 328 327 326 326 326 327 328 330 331 332 331 331 332 333 332 330 329 328 328 328 329 328
298 298 298 298 299 299 302 303 302 304 305 308 313 315 317 318 320 322 323 324 325 326 327 326 327 327 327 328 328 328 327 327 326 324 325 327 328 329 330 330 330 330 330 330 330 328 328 328 329 329 329 328
297 297 297 297 297 298 302 300 301 302 303 305 310 313 315 317 318 320 321 322 323 324 325 326 326 327 327 328 328 328 326 327 326 325 325 327 327 328 328 328 328 328 328 328 327 327 327 327 328 328 329 328
295 296 296 296 297 297 299 299 300 300 301 305 307 308 310 313 316 318 319 319 321 322 323 325 325 325 325 327 328 327 327 326 326 325 324 325 326 327 327 326 326 326 326 325 326 326 325 326 327 328 328 328
295 296 295 296 296 296 297 298 299 298 301 305 304 303 304 309 313 315 317 318 320 321 322 323 324 324 325 324 326 327 327 326 326 325 323 324 326 326 326 325 324 324 324 323 323 322 324 324 324 324 325 326
294 295 295 295 296 296 297 298 297 298 300 302 301 302 303 306 308 309 310 312 314 317 319 320 322 323 323 323 324 326 325 324 325 324 323 324 325 326 325 324 323 324 323 323 323 322 323 323 325 326 325 324
294 294 294 294 295 295 297 296 296 297 298 299 299 300 302 303 303 303 303 307 313 315 317 318 319 321 322 323 323 324 325 325 324 323 322 322 323 323 323 322 322 322 322 322 322 322 323 322 322 322 323 322
294 294 294 294 294 295 295 296 296 297 297 297 298 299 301 300 300 300 303 308 310 311 313 316 318 319 320 322 323 323 324 324 323 322 322 322 321 318 321 321 321 321 321 320 319 322 321 320 320 319 321 321
293 293 293 293 294 294 295 295 295 296 296 296 297 298 298 298 299 300 304 305 307 309 310 312 314 317 319 321 322 322 323 323 322 322 321 321 320 319 320 321 320 321 320 319 318 318 318 318 318 318 317 317
292 292 293 293 295 294 294 294 295 295 296 296 297 297 297 297 298 300 301 302 306 304 305 308 311 314 317 319 321 322 322 322 321 321 322 321 322 318 318 319 319 320 319 319 319 318 317 318 317 316 316 317
292 292 292 292 292 293 293 293 294 295 296 296 296 296 296 297 298 299 300 302 302 301 302 306 309 312 314 315 317 319 321 320 320 320 320 320 320 320 318 318 318 318 319 318 318 317 316 316 316 316 316 317
291 292 292 292 292 293 292 292 293 294 294 295 295 296 296 296 297 298 299 300 300 299 301 304 306 310 312 314 315 316 318 320 321 321 320 319 319 319 319 318 318 317 318 318 317 317 316 315 314 314 315 316
291 291 291 291 291 291 291 291 292 292 292 293 294 294 295 296 297 297 298 298 298 298 300 301 304 306 310 312 313 313 314 318 320 319 320 320 319 318 319 318 318 318 318 317 316 315 316 315 314 314 314 314
290 290 290 289 290 290 290 290 291 291 291 292 292 294 295 296 296 297 297 297 297 298 299 300 301 304 307 310 311 311 310 313 319 319 318 319 319 316 316 317 318 318 317 316 315 312 314 314 314 313 313 315
289 288 288 288 288 288 289 289 290 290 290 291 292 293 294 295 296 296 296 297 297 297 298 299 300 302 305 308 309 309 308 310 314 319 318 317 317 316 315 314 316 317 317 313 310 311 310 309 311 311 313 314
289 289 288 287 287 288 289 288 288 288 289 290 291 292 293 295 295 296 296 296 296 297 297 297 298 300 302 305 307 306 306 307 305 313 319 318 316 317 315 314 316 316 315 311 309 306 304 304 306 307 311 312
288 288 288 288 288 288 288 289 289 288 289 289 290 291 292 294 295 295 295 295 296 297 297 297 298 299 301 303 304 304 304 304 302 304 313 317 315 313 315 315 316 315 316 311 312 310 306 302 303 303 305 305
289 288 288 288 288 287 286 285 287 287 287 288 289 289 291 291 293 294 294 295 296 297 297 297 297 299 300 301 304 304 303 302 301 301 303 312 316 315 311 312 312 315 316 314 310 303 306 305 306 299 303 306
288 287 287 286 285 285 284 284 284 284 285 287 288 289 289 290 292 292 293 294 296 296 296 297 298 298 299 301 302 304 303 301 301 302 303 305 314 314 312 310 312 313 315 314 314 309 305 300 301 302 304 305
287 286 284 283 282 280 280 280 281 281 282 282 282 284 287 289 290 291 292 294 296 296 296 297 298 298 298 300 301 303 303 302 302 302 301 302 306 316 315 312 311 310 313 314 313 313 312 309 304 303 304 304
286 284 283 282 281 281 280 280 281 282 282 282 283 284 284 286 289 290 291 292 294 295 297 297 297 297 298 299 301 302 302 301 300 301 301 301 302 308 314 313 310 310 311 312 312 311 310 304 305 309 305 302
Wind_Speed
18 14 10 13 14 14 15 15 16 18 19 19 20 19 15 13 11 11 10 10 11 11 11 13 15 16 16 15 13 14 15 14 14 12 11 11 11 11 11 10 11 17 19 19 19 21 21 18 19 17 14 8
18 18 18 15 12 13 14 15 17 17 16 17 17 16 14 13 13 10 10 11 11 12 13 13 15 19 17 15 14 14 14 14 13 11 11 12 12 12 12 11 13 17 18 19 19 21 21 21 19 17 17 9
14 19 19 19 18 16 16 15 15 15 16 16 15 15 15 14 13 13 12 12 13 14 15 14 15 17 19 14 14 14 14 13 12 12 12 12 13 14 13 12 14 17 19 19 20 21 20 19 20 20 14 9
13 16 19 19 18 18 17 16 15 16 15 16 15 14 14 14 13 11 11 13 12 14 17 18 16 18 15 15 15 15 14 13 13 13 13 13 14 14 14 14 15 18 20 20 18 18 20 20 19 13 10 9
10 13 17 15 18 18 17 17 15 16 15 14 13 14 13 12 10 9 8 10 9 12 11 14 16 15 15 15 16 15 14 14 14 14 14 14 14 15 15 14 17 18 20 13 16 18 18 20 14 10 10 9
9 10 13 11 12 12 14 14 15 11 10 10 9 12 11 8 8 8 9 9 10 10 11 12 15 16 16 16 16 15 15 15 15 15 15 16 15 15 13 14 10 10 12 18 21 14 16 13 9 10 9 9
10 12 10 10 11 10 12 12 13 12 11 9 9 9 9 8 7 8 9 9 10 10 14 14 15 16 17 17 17 16 16 16 16 16 16 16 15 13 14 10 7 6 8 12 20 20 17 11 8 10 9 10
11 12 10 11 11 10 10 10 10 11 11 10 10 10 9 8 9 9 8 13 16 14 11 11 15 18 19 19 18 17 13 14 14 16 16 15 14 11 7 6 7 7 8 9 10 11 12 11 10 12 12 9
12 12 9 11 12 12 11 10 11 10 10 10 11 11 9 9 9 9 8 8 9 9 9 9 9 8 8 8 9 13 9 8 9 9 7 7 8 7 7 8 8 8 8 9 10 11 10 10 11 11 11 10
11 12 10 12 12 12 12 11 12 11 11 10 10 10 11 10 9 9 8 8 8 9 10 10 8 8 8 8 9 8 8 7 8 8 8 8 7 7 7 9 9 10 10 10 10 10 10 10 10 10 10 10
9 9 8 9 11 12 11 11 12 12 12 13 13 10 9 10 11 10 9 9 9 9 8 10 10 9 8 9 8 8 8 9 9 8 8 7 8 7 8 9 9 9 9 9 10 10 11 11 11 10 9 6
9 7 8 9 9 10 11 11 10 12 13 13 13 13 11 9 9 10 10 10 10 10 9 9 10 10 9 9 9 9 9 10 8 8 8 8 7 8 8 9 9 8 9 9 10 11 12 12 12 12 10 10
9 8 7 7 8 9 10 9 9 11 13 13 12 12 13 11 11 10 10 10 11 10 10 10 9 9 10 10 10 9 10 10 9 9 8 8 9 8 8 8 8 8 9 9 9 11 13 13 13 13 11 10
9 9 8 8 9 9 9 8 10 11 10 10 11 12 14 15 12 11 11 11 10 11 12 11 10 9 9 10 8 8 10 10 10 10 9 9 9 9 9 9 8 8 9 10 10 10 11 12 11 11 12 11
11 11 10 10 10 9 9 10 10 10 11 9 10 12 15 14 13 12 12 11 12 12 12 12 11 11 9 9 10 10 10 8 10 10 11 11 11 10 10 9 8 8 7 7 7 7 9 8 5 4 4 6
12 12 12 12 11 11 11 11 10 10 10 10 10 11 13 13 13 13 13 14 13 13 13 13 12 12 10 10 9 9 9 9 10 10 10 12 11 10 9 8 8 8 7 8 8 8 8 7 10 10 8 6
10 10 12 13 12 11 11 11 10 10 10 10 10 11 11 12 14 12 12 13 13 13 13 13 14 12 11 11 10 10 11 12 10 9 8 8 8 7 7 8 8 8 8 10 9 9 11 10 10 7 8 9
10 10 10 10 11 12 13 10 11 11 10 10 10 10 11 12 12 13 12 11 13 12 12 13 13 13 13 11 12 11 11 11 10 9 10 10 10 10 10 11 10 9 9 6 6 10 10 8 8 7 7 8
11 11 10 11 11 11 12 13 12 11 10 10 10 10 10 10 12 12 12 11 11 12 12 13 13 13 13 13 13 12 11 10 9 11 12 10 11 10 10 11 11 11 10 10 9 6 7 8 7 7 8 6
12 11 10 10 11 12 13 12 12 11 11 11 10 10 11 11 11 12 11 11 10 10 11 12 13 12 13 15 13 14 13 11 10 10 12 14 14 12 12 12 11 10 10 10 11 9 8 8 9 7 6 8
13 12 12 13 14 14 13 12 12 12 12 11 11 10 11 12 12 10 11 11 10 10 11 11 12 12 13 13 13 12 13 12 8 10 11 11 13 15 14 13 14 11 11 10 11 10 9 9 9 9 8 6
11 11 14 14 13 13 13 13 12 12 12 12 12 12 12 13 12 11 10 10 9 9 10 10 12 13 14 12 12 12 14 15 12 13 13 13 13 14 13 13 14 13 11 10 10 9 10 9 7 7 8 8
10 13 14 14 14 14 14 12 12 12 13 13 14 14 14 13 12 11 11 10 9 8 9 10 11 12 14 12 11 12 13 15 14 14 16 16 15 14 14 15 15 15 13 12 11 10 11 10 9 7 6 8
11 12 14 16 16 16 13 12 12 13 13 14 15 15 15 14 13 11 11 10 8 7 8 9 10 12 13 13 12 12 13 15 15 17 17 19 22 17 13 12 14 14 13 11 12 10 8 8 9 8 8 8
12 13 15 16 17 17 15 13 14 14 14 14 15 18 17 15 13 12 11 10 8 8 8 8 9 11 12 13 12 12 13 14 18 16 15 14 12 17 16 11 9 13 15 13 8 7 7 6 5 8 9 9
12 12 12 15 17 17 16 14 14 15 14 15 15 18 18 14 13 12 12 10 8 8 7 8 9 9 11 12 12 12 13 12 13 19 17 14 16 19 20 15 16 14 12 13 16 13 7 4 4 4 7 8
12 13 15 16 17 15 14 13 14 15 16 18 20 18 17 16 14 14 12 11 9 9 8 8 8 9 9 11 12 12 13 11 14 18 19 18 15 10 12 14 16 18 19 14 13 13 12 7 5 1 3 2
14 15 16 14 12 15 15 18 18 21 19 17 16 16 16 16 14 13 12 11 11 10 9 8 8 8 8 10 11 11 11 10 12 17 18 19 17 20 16 11 10 16 18 15 16 12 13 14 14 9 8 8
14 15 15 14 15 13 14 13 12 12 12 12 13 15 14 14 14 15 14 13 13 11 10 8 8 7 8 9 11 10 10 9 9 13 15 20 19 14 15 14 12 15 17 18 21 17 10 5 7 13 14 11
13 14 14 15 15 17 16 16 15 14 17 18 19 18 18 18 16 17 16 14 12 11 10 10 8 7 7 8 10 9 9 8 8 10 14 15 19 22 21 18 15 14 15 17 19 17 19 20 17 16 11 15
13 14 13 15 14 14 14 16 14 14 13 13 15 14 19 18 16 17 18 17 14 12 12 10 8 7 7 7 8 10 8 9 9 9 11 13 15 20 12 14 17 18 16 13 16 14 10 3 3 15 21 15
Wind_Direction
356 344 311 315 311 304 303 300 301 302 300 299 297 295 286 278 259 246 241 244 248 256 265 268 268 258 243 238 236 238 240 240 239 239 243 248 253 252 250 245 217 211 217 224 195 203 204 198 194 196 198 195
354 353 351 341 321 315 308 304 303 297 293 291 295 294 290 284 285 270 254 252 254 255 258 257 256 257 247 237 235 239 238 239 235 231 234 243 249 249 244 242 221 209 213 217 209 197 199 196 194 196 197 195
353 353 351 348 346 337 324 314 303 296 289 286 283 284 285 284 277 278 269 256 252 254 253 250 248 253 248 234 232 233 235 233 231 232 234 238 245 249 245 238 223 206 209 213 214 200 198 197 194 195 195 194
353 353 352 351 347 343 336 323 311 303 295 289 285 283 282 280 274 264 269 264 254 249 248 247 242 235 233 234 233 233 232 230 234 237 239 240 241 245 244 235 222 209 207 210 216 215 200 197 198 204 194 190
351 349 351 351 348 345 343 336 322 309 304 297 290 285 279 277 274 268 262 264 259 245 241 240 243 241 237 234 234 231 227 229 234 240 242 243 242 241 239 231 222 211 207 199 230 212 213 199 191 199 202 191
350 345 347 348 348 346 345 342 337 326 313 301 294 291 290 281 271 267 264 258 254 257 250 244 241 243 241 239 234 228 226 226 230 237 241 241 242 242 236 228 223 216 190 189 223 220 239 212 194 193 213 194
349 347 346 345 344 341 343 340 339 336 329 318 305 294 288 286 281 272 265 259 251 245 247 245 239 236 236 237 235 228 224 225 227 231 238 241 243 240 233 225 217 200 191 204 213 200 210 212 189 194 207 206
350 347 348 346 343 342 338 337 335 333 330 327 320 311 299 291 288 281 273 268 260 252 249 249 244 239 233 231 230 224 225 227 226 230 236 240 240 237 232 221 212 204 195 204 204 205 201 201 191 193 194 206
350 342 344 347 343 341 340 336 334 329 326 323 323 321 313 303 294 291 290 285 281 273 256 245 245 244 239 234 230 221 223 217 224 227 231 237 238 233 228 219 211 202 200 201 199 200 199 197 194 194 193 200
345 339 347 348 342 338 337 337 335 331 327 322 320 321 319 314 307 300 291 290 283 275 273 265 244 235 228 220 221 209 219 216 215 217 221 224 226 225 222 215 210 204 202 200 197 196 195 195 194 198 199 194
347 336 342 341 339 337 334 337 335 334 332 327 320 316 316 318 315 310 305 299 296 290 277 271 267 245 221 220 215 206 211 216 214 211 215 217 217 216 217 216 209 203 204 204 197 192 194 192 191 192 197 200
342 332 337 337 337 334 331 333 334 335 330 325 322 320 315 311 309 309 311 308 303 297 290 275 269 267 248 222 218 205 209 212 212 210 211 212 212 210 214 213 208 201 200 202 197 191 192 192 192 189 187 178
337 331 333 334 335 334 331 328 334 332 323 323 324 323 321 321 315 314 309 305 304 301 292 284 272 261 258 243 223 206 210 206 207 208 205 208 209 205 207 206 206 200 199 196 196 194 191 195 194 190 185 185
338 335 333 333 332 330 330 330 331 328 322 319 327 329 329 325 320 316 311 308 305 302 298 291 280 266 259 261 254 230 213 206 205 204 200 205 207 202 203 199 196 193 196 193 191 192 195 197 195 187 182 181
339 336 335 334 331 330 331 329 330 330 323 324 330 327 325 322 324 323 321 318 316 312 305 298 291 281 270 258 247 234 231 208 209 203 199 197 200 201 199 196 181 188 187 182 174 185 196 183 142 154 175 163
338 337 335 333 332 330 329 329 328 325 323 325 324 324 319 321 324 327 324 322 319 316 311 305 299 292 278 267 264 250 238 232 217 206 203 201 200 198 193 185 181 177 169 173 172 160 164 169 171 176 164 164
333 332 333 332 329 325 323 323 321 319 319 318 320 317 316 318 320 321 320 316 316 316 312 308 304 296 283 274 263 257 244 225 216 211 201 201 189 185 185 178 180 175 180 177 175 172 173 167 171 165 158 156
331 328 325 322 322 322 320 317 315 313 310 311 312 310 311 314 314 315 314 317 320 316 312 309 304 298 293 280 266 251 250 243 230 201 195 191 183 184 180 183 179 176 177 170 179 178 168 168 160 154 159 155
328 324 322 321 320 319 318 315 313 308 305 305 306 307 305 306 308 307 308 316 315 316 317 315 311 306 299 290 275 260 243 243 238 205 195 184 189 183 185 183 180 180 178 170 170 170 162 159 151 152 148 146
324 322 322 321 320 318 314 309 306 305 301 300 298 298 301 302 299 300 304 309 313 313 315 312 308 306 305 301 288 265 249 235 227 217 201 192 183 181 187 179 181 179 178 177 176 168 170 167 160 155 152 145
325 325 326 325 319 315 312 311 308 303 301 297 295 294 296 297 295 291 296 302 306 310 311 309 306 305 303 302 296 285 265 244 230 227 215 192 191 187 179 182 177 180 179 179 178 170 171 169 167 161 155 149
326 327 326 321 317 312 310 309 307 307 305 300 296 293 290 290 288 286 288 292 298 300 302 303 304 304 301 299 296 290 274 254 229 219 216 207 199 192 182 183 177 177 172 172 171 173 170 167 166 167 159 154
326 327 323 318 315 312 310 307 307 307 306 304 298 291 287 285 284 281 281 285 286 293 299 302 304 304 301 299 297 296 294 270 239 220 214 207 199 196 192 180 179 172 168 165 166 170 170 163 161 159 163 150
328 328 327 323 320 314 309 306 307 309 307 306 301 293 286 281 278 276 278 277 277 282 290 298 300 302 302 299 298 300 300 290 256 227 225 214 188 186 191 194 177 168 163 160 161 155 148 153 149 154 158 158
333 332 328 324 320 314 310 311 313 310 310 307 305 300 291 282 275 275 275 273 269 274 285 288 293 298 300 299 298 297 294 297 285 252 220 214 210 183 185 189 187 176 156 146 131 136 118 104 133 148 151 156
326 329 327 321 316 312 310 314 316 313 313 309 303 299 292 283 280 278 274 268 263 268 272 284 290 294 298 298 295 293 292 294 302 285 240 220 203 187 183 184 178 174 158 160 158 154 142 91 84 108 138 146
326 326 325 321 311 311 317 318 318 311 308 306 300 295 295 291 285 281 275 265 265 267 271 270 281 286 289 292 291 291 295 305 307 299 280 227 206 202 193 179 179 172 174 168 166 148 132 149 132 55 99 84
324 323 321 320 326 329 321 314 313 307 302 294 291 295 296 293 289 280 272 270 267 265 263 264 270 280 285 287 287 287 289 295 292 289 293 280 235 189 173 186 181 181 182 164 148 163 179 172 166 155 188 172
330 330 331 330 322 315 309 298 294 296 297 309 312 305 296 295 293 289 282 275 267 258 260 260 260 266 277 282 284 280 280 290 281 286 286 289 265 225 182 176 181 186 188 177 175 160 149 111 165 189 175 155
337 333 330 329 328 325 324 316 317 319 322 321 315 313 310 306 301 295 288 281 270 262 257 255 252 256 268 276 283 277 275 278 287 284 295 284 290 235 197 179 176 181 190 188 189 181 175 173 177 174 148 152
336 330 327 325 319 312 308 307 305 305 305 304 305 303 300 298 299 300 292 281 272 264 255 252 250 251 256 266 274 279 273 283 285 292 286 301 288 285 227 181 177 180 180 188 195 191 191 26 56 151 147 175